Weather History for Monroe, MI

Change the Weather History Date:

Saturday, January 19, 2013

  Actual Average Record
Temperature  
Mean Temperature 42 °F -  
Max Temperature 48 °F 30 °F 57 °F (1933)
Min Temperature 37 °F 15 °F -12 °F (1940)
Degree Days  
Heating Degree Days 22    
Moisture  
Dew Point 30 °F    
Average Humidity 60    
Maximum Humidity 76    
Minimum Humidity 50    
Precipitation  
Precipitation 0.00 in - - ()
Sea Level Pressure  
Sea Level Pressure 29.85 in    
Wind  
Wind Speed 18 mph (SW)    
Max Wind Speed 26 mph    
Max Gust Speed 38 mph    
Visibility 10 miles    
Events      
Averages and records for this station are not official NWS values.
T = Trace of Precipitation, MM = Missing Value Source: NWS Daily Summary

Daily Weather History Graph

Daily Weather History Graph

Search for Another Location

Airport:

Trip Planner

Search our weather history database for the weather conditions in past years. The results will help you decide how hot, cold, wet, or windy it might be!

Date:

Astronomy

Jan. 19, 2013 Rise Set
Actual Time 7:56 AM EST 5:32 PM EST
Civil Twilight 7:26 AM EST 6:03 PM EST
Nautical Twilight 6:52 AM EST 6:37 PM EST
Astronomical Twilight 6:18 AM EST 7:10 PM EST
Moon 11:59 AM EST 1:28 AM EST
Length of Visible Light 10h 36m
Length of Day
9h 35m
First Quarter, 57% of the Moon is Illuminated
Jan 19
First Quarter
Jan 26
Full
Feb 3
Last Quarter
Feb 10
New
Feb 17
First Quarter

Hourly Weather History & Observations

Time (EST) Temp. Windchill Dew Point Humidity Pressure Visibility Wind Dir Wind Speed Gust Speed Precip Events Conditions
12:13 AM 37.4 °F 28.2 °F 24.8 °F 60% 29.99 in 10.0 mi SW 16.1 mph 23.0 mph N/A   Clear
12:34 AM 37.4 °F 27.8 °F 24.8 °F 60% 29.99 in 10.0 mi SW 17.3 mph 26.5 mph N/A   Clear
12:54 AM 37.4 °F 28.5 °F 24.8 °F 60% 29.98 in 10.0 mi SW 15.0 mph 26.5 mph N/A   Clear
1:14 AM 37.4 °F 28.5 °F 24.8 °F 60% 29.98 in 10.0 mi SW 15.0 mph 20.7 mph N/A   Clear
1:34 AM 37.4 °F 28.2 °F 24.8 °F 60% 29.97 in 10.0 mi SW 16.1 mph 23.0 mph N/A   Clear
1:54 AM 37.4 °F 27.8 °F 24.8 °F 60% 29.97 in 10.0 mi SW 17.3 mph 26.5 mph N/A   Clear
2:14 AM 37.4 °F 27.5 °F 24.8 °F 60% 29.97 in 10.0 mi SW 18.4 mph 29.9 mph N/A   Clear
2:34 AM 39.2 °F 29.8 °F 24.8 °F 56% 29.97 in 10.0 mi SW 18.4 mph 24.2 mph N/A   Clear
2:54 AM 39.2 °F 29.3 °F 24.8 °F 56% 29.97 in 10.0 mi SW 20.7 mph 26.5 mph N/A   Clear
3:14 AM 39.2 °F 30.2 °F 24.8 °F 56% 29.96 in 10.0 mi SW 17.3 mph 26.5 mph N/A   Clear
3:34 AM 39.2 °F 29.6 °F 24.8 °F 56% 29.96 in 10.0 mi SW 19.6 mph 25.3 mph N/A   Clear
3:55 AM 39.2 °F 29.3 °F 24.8 °F 56% 29.96 in 10.0 mi SW 20.7 mph 29.9 mph N/A   Clear
4:15 AM 39.2 °F 29.3 °F 24.8 °F 56% 29.96 in 10.0 mi SW 20.7 mph 27.6 mph N/A   Clear
4:35 AM 39.2 °F 30.2 °F 26.6 °F 61% 29.96 in 10.0 mi SW 17.3 mph 27.6 mph N/A   Clear
4:55 AM 39.2 °F 30.2 °F 26.6 °F 61% 29.95 in 10.0 mi SW 17.3 mph 24.2 mph N/A   Clear
5:15 AM 37.4 °F 28.2 °F 26.6 °F 65% 29.95 in 10.0 mi SW 16.1 mph 20.7 mph N/A   Clear
5:35 AM 37.4 °F 28.2 °F 26.6 °F 65% 29.95 in 10.0 mi SW 16.1 mph - N/A   Clear
5:55 AM 37.4 °F 27.8 °F 26.6 °F 65% 29.95 in 10.0 mi SW 17.3 mph 25.3 mph N/A   Clear
6:15 AM 37.4 °F 28.2 °F 26.6 °F 65% 29.95 in 10.0 mi SW 16.1 mph 23.0 mph N/A   Clear
6:35 AM 37.4 °F 27.8 °F 26.6 °F 65% 29.96 in 10.0 mi SW 17.3 mph 24.2 mph N/A   Clear
6:55 AM 37.4 °F 27.8 °F 26.6 °F 65% 29.96 in 10.0 mi SW 17.3 mph 25.3 mph N/A   Clear
7:15 AM 37.4 °F 27.8 °F 26.6 °F 65% 29.95 in 10.0 mi SW 17.3 mph 25.3 mph N/A   Clear
7:36 AM 37.4 °F 27.8 °F 26.6 °F 65% 29.95 in 10.0 mi SW 17.3 mph 21.9 mph N/A   Clear
7:51 AM 37.4 °F 28.2 °F 26.6 °F 65% 29.96 in 10.0 mi SW 16.1 mph 24.2 mph N/A   Clear
8:11 AM 37.4 °F 28.2 °F 26.6 °F 65% 29.95 in 10.0 mi SW 16.1 mph 26.5 mph N/A   Clear
8:31 AM 39.2 °F 29.8 °F 26.6 °F 61% 29.95 in 10.0 mi SW 18.4 mph 26.5 mph N/A   Clear
8:51 AM 39.2 °F 30.2 °F 26.6 °F 61% 29.96 in 10.0 mi SW 17.3 mph 25.3 mph N/A   Clear
9:11 AM 41.0 °F 31.6 °F 26.6 °F 57% 29.96 in 10.0 mi SW 20.7 mph 26.5 mph N/A   Clear
9:31 AM 42.8 °F 34.3 °F 28.4 °F 57% 29.96 in 10.0 mi SW 19.6 mph 29.9 mph N/A   Clear
9:51 AM 42.8 °F 34.5 °F 28.4 °F 57% 29.96 in 10.0 mi SW 18.4 mph 28.8 mph N/A   Clear
10:11 AM 42.8 °F 34.0 °F 28.4 °F 57% 29.96 in 10.0 mi SW 20.7 mph 28.8 mph N/A   Clear
10:32 AM 42.8 °F 33.3 °F 28.4 °F 57% 29.96 in 10.0 mi SW 24.2 mph 28.8 mph N/A   Clear
10:52 AM 42.8 °F 35.1 °F 28.4 °F 57% 29.95 in 10.0 mi SW 16.1 mph 28.8 mph N/A   Clear
11:12 AM 42.8 °F 34.3 °F 28.4 °F 57% 29.94 in 10.0 mi WSW 19.6 mph 31.1 mph N/A   Clear
11:32 AM 46.4 °F 38.1 °F 28.4 °F 50% 29.93 in 10.0 mi SW 24.2 mph 29.9 mph N/A   Clear
11:52 AM 46.4 °F 38.5 °F 30.2 °F 53% 29.91 in 10.0 mi SW 21.9 mph 32.2 mph N/A   Clear
12:12 PM 46.4 °F 38.1 °F 30.2 °F 53% 29.91 in 10.0 mi SW 24.2 mph 32.2 mph N/A   Clear
12:32 PM 46.4 °F 38.5 °F 30.2 °F 53% 29.89 in 10.0 mi WSW 21.9 mph 32.2 mph N/A   Clear
12:52 PM 46.4 °F 38.1 °F 30.2 °F 53% 29.87 in 10.0 mi SW 24.2 mph 31.1 mph N/A   Clear
1:12 PM 48.2 °F - 30.2 °F 50% 29.85 in 10.0 mi SW 25.3 mph 34.5 mph N/A   Clear
1:32 PM 48.2 °F - 30.2 °F 50% 29.83 in 10.0 mi SW 24.2 mph 29.9 mph N/A   Clear
1:53 PM 46.4 °F 38.1 °F 30.2 °F 53% 29.82 in 10.0 mi SW 24.2 mph 32.2 mph N/A   Clear
2:13 PM 48.2 °F - 30.2 °F 50% 29.81 in 10.0 mi SW 21.9 mph 27.6 mph N/A   Clear
2:33 PM 48.2 °F - 30.2 °F 50% 29.81 in 10.0 mi SW 21.9 mph 29.9 mph N/A   Clear
2:53 PM 48.2 °F - 32.0 °F 54% 29.80 in 10.0 mi SW 16.1 mph 26.5 mph N/A   Clear
3:13 PM 48.2 °F - 32.0 °F 54% 29.79 in 10.0 mi SW 17.3 mph 29.9 mph N/A   Clear
3:33 PM 48.2 °F - 32.0 °F 54% 29.78 in 10.0 mi SW 26.5 mph 34.5 mph N/A   Clear
3:53 PM 48.2 °F - 32.0 °F 54% 29.76 in 10.0 mi SW 19.6 mph 27.6 mph N/A   Clear
4:13 PM 48.2 °F - 32.0 °F 54% 29.76 in 10.0 mi SW 16.1 mph 29.9 mph N/A   Clear
4:33 PM 48.2 °F - 32.0 °F 54% 29.75 in 10.0 mi SW 23.0 mph 28.8 mph N/A   Clear
4:54 PM 48.2 °F - 32.0 °F 54% 29.75 in 10.0 mi SW 17.3 mph 24.2 mph N/A   Clear
5:14 PM 48.2 °F - 32.0 °F 54% 29.75 in 10.0 mi SW 16.1 mph 24.2 mph N/A   Clear
5:34 PM 48.2 °F - 33.8 °F 58% 29.76 in 10.0 mi WSW 15.0 mph 23.0 mph N/A   Clear
5:54 PM 48.2 °F - 33.8 °F 58% 29.76 in 10.0 mi SW 15.0 mph 23.0 mph N/A   Mostly Cloudy
6:14 PM 46.4 °F 40.1 °F 33.8 °F 62% 29.75 in 10.0 mi WSW 15.0 mph 19.6 mph N/A   Mostly Cloudy
6:34 PM 46.4 °F 40.1 °F 33.8 °F 62% 29.74 in 10.0 mi SW 15.0 mph 25.3 mph N/A   Overcast
6:54 PM 46.4 °F 40.1 °F 33.8 °F 62% 29.73 in 10.0 mi SW 15.0 mph 21.9 mph N/A   Mostly Cloudy
7:14 PM 46.4 °F 40.1 °F 33.8 °F 62% 29.73 in 10.0 mi SW 15.0 mph 21.9 mph N/A   Overcast
7:34 PM 46.4 °F 39.0 °F 33.8 °F 62% 29.73 in 10.0 mi SW 19.6 mph 29.9 mph N/A   Overcast
7:54 PM 46.4 °F 39.5 °F 33.8 °F 62% 29.72 in 10.0 mi SW 17.3 mph 31.1 mph N/A   Mostly Cloudy
8:14 PM 46.4 °F 38.3 °F 33.8 °F 62% 29.70 in 10.0 mi SW 23.0 mph 31.1 mph N/A   Scattered Clouds
8:35 PM 46.4 °F 38.7 °F 33.8 °F 62% 29.69 in 10.0 mi SW 20.7 mph 32.2 mph N/A   Clear
8:55 PM 46.4 °F 39.0 °F 33.8 °F 62% 29.67 in 10.0 mi SW 19.6 mph 27.6 mph N/A   Clear
9:15 PM 46.4 °F 38.3 °F 33.8 °F 62% 29.67 in 10.0 mi SW 23.0 mph 36.8 mph N/A   Clear
9:35 PM 46.4 °F 37.7 °F 35.6 °F 66% 29.66 in 10.0 mi SW 26.5 mph 34.5 mph N/A   Clear
9:55 PM 46.4 °F 38.5 °F 35.6 °F 66% 29.65 in 10.0 mi SW 21.9 mph 34.5 mph N/A   Clear
10:15 PM 44.6 °F 35.5 °F 35.6 °F 71% 29.64 in 10.0 mi SW 25.3 mph 38.0 mph N/A   Clear
10:35 PM 44.6 °F 35.9 °F 35.6 °F 71% 29.63 in 10.0 mi SW 23.0 mph 31.1 mph N/A   Clear
10:55 PM 44.6 °F 36.4 °F 35.6 °F 71% 29.63 in 10.0 mi SW 20.7 mph 27.6 mph N/A   Clear
11:15 PM 44.6 °F 35.9 °F 35.6 °F 71% 29.62 in 10.0 mi SW 23.0 mph - N/A   Clear
11:35 PM 44.6 °F 36.1 °F 35.6 °F 71% 29.61 in 10.0 mi WSW 21.9 mph 29.9 mph N/A   Clear
11:56 PM 42.8 °F 34.3 °F 35.6 °F 76% 29.61 in 10.0 mi WSW 19.6 mph 28.8 mph N/A   Clear